GAOFEN 6

Satellite information

Favourite Embed

Satellite Type and Status

PAYLOADIN ORBIT

Key statistics

Satellite GAOFEN 6 at a glance.

Uptime

2653

Days in orbit

Revolutions

≈ 14.8

Per day

Orbit

SSO

Sun Synchronous Orbit

Inclination

97.8

Latest

Satellite identification and parameters

Extended collection of information and parameters for GAOFEN 6.

Object identification

Identified? True

Debris? False

Object name: GAOFEN 6

International designator: 2018-048A

Object number (NORAD): 43484

Object ID (CCSDS): 43484

Country: PEOPLES REPUBLIC OF CHINA (PRC)

Current information (Y/N): Y

RCS size: LARGE

Orbital parameters

Period: 97.522 minutes

Inclination: 97.8161 deg

SMA: 7018.256 km

Apoapsis: 648.938 km

Periapsis: 631.305 km

RAAN: 316.4076 deg

Eccentricy: 0.00125623

Argument of periapsis: 19.143 deg

Mean anomaly: 341.025 deg

Mean motion: 14.76586658 rev/day

Mean motion (dot): 0.00001273 rev/day2

B* drag term: 0.00018924685 1/REarth

Two-line elements (TLE)

Creation date: Sept. 6, 2025, 2:09 a.m.

Reference frame: TEME

Reference center: EARTH

Epoch: Sept. 5, 2025, 10:24 p.m. UTC

TLE line 0: 0 GAOFEN 6

TLE line 1: 1 43484U 18048A 25248.93342223 .00001273 00000-0 18925-3 0 9994

TLE line 2: 2 43484 97.8161 316.4076 0012562 19.1430 341.0250 14.76586658391440

Live tracking on map

Real-time ground track for satellite GAOFEN 6.

In-orbit conjunctions

There are no conjunctions computed for GAOFEN 6, at the moment. Check back to stay up to date, as we update our databases every day.

Go to all conjunctions

Associated space launch

Gaofen is a series of civilian Earth observation satellites developed and launched for the China High-definition Earth Observation System (CHEOS), a state-sponsored programme aimed to develop a near-real time, all-weather, global surveillance network consisting of satellite, near-space (stratosphere) airships, and aerial observation platforms. Luojia-1 is a 6U Earth observation cubesat prototype.

GAOFEN 6 was lifted into orbit during the mission ‘Long March 2D | Gaofen 6 & Luojia-1’, on board a Long March 2D space rocket.

The launch took place on June 2, 2018, 4:13 a.m. from Launch Area 4 (SLS-2 / 603).

For more information about the launch, click the button.

Launch to space Long March 2D | Gaofen 6 & Luojia-1
Long March 2D | Gaofen 6 & Luojia-1

Agency: N/A

Status: Launch Successful

Launch date: June 2, 2018, 4:13 a.m. UTC

Rocket: Long March 2D

Launch pad: Launch Area 4 (SLS-2 / 603)

Location: Jiuquan Satellite Launch Center, People's Republic of China

...

Latest news about this satellite

There are no fresh news available about this satellite. Check back as we update our databases every day.


Newsletter sign-up

Weekly statistics, charts and insights to help you stay on top of the space industry.